Date String (YYYY-MM-DD hh:mm:ss) UTC,Instrument flags,Ambient pressure (hPa),Sample flow (lpm),Bypass flow (lpm),Sample temperature (°C),Ambient temperature (°C),ASC tube jacket temperature (°C),LED temperature (°C),Box temperature (°C),Sample RH (%),Span deviation,Mass concentration (μg/m³),Mass concentration (μg/m³),Mass concentration (μg/m³)
DateTimeUTC,F1_M11,P_M11,Q1_M11,Q2_M11,T1_M11,T2_M11,T3_M11,T4_M11,T5_M11,U1_M11,ZSPAN_M11,X2_M11,X0_M11,X1_M11
2022-10-31 10:00:00,,0824.5,5.02,0.00,26.4,24.8,00.0,35.2,28.3,10.2,0000.0,0002.76,0003.69,0002.39
2022-10-31 10:01:00,,0824.4,4.99,0.00,26.4,24.8,00.0,35.2,28.2,10.2,0000.0,0002.76,0003.88,0002.39
2022-10-31 10:02:00,,0824.4,5.01,0.00,26.4,24.8,00.0,35.2,28.2,10.2,0000.0,0002.74,0004.15,0002.37
2022-10-31 10:03:00,,0824.5,4.99,0.00,26.4,24.8,00.0,35.2,28.3,10.2,0000.0,0002.73,0004.11,0002.38
2022-10-31 10:04:00,,0824.5,5.00,0.00,26.4,24.8,00.0,35.2,28.2,10.2,0000.0,0002.73,0004.09,0002.39
2022-10-31 10:05:00,,0824.4,5.01,0.00,26.4,24.8,00.0,35.2,28.2,10.2,0000.0,0002.70,0004.03,0002.38
2022-10-31 10:06:00,,0824.5,5.00,0.00,26.4,24.8,00.0,35.2,28.2,10.2,0000.0,0002.68,0003.98,0002.38
2022-10-31 10:07:00,,0824.4,4.97,0.00,26.4,24.8,00.0,35.2,28.2,10.2,0000.0,0002.70,0004.02,0002.39
2022-10-31 10:08:00,,0824.4,5.01,0.00,26.4,24.8,00.0,35.2,28.2,10.3,0000.0,0002.72,0004.06,0002.40
2022-10-31 10:09:00,,0824.3,5.01,0.00,26.4,24.8,00.0,35.2,28.2,10.2,0000.0,0002.73,0004.07,0002.40
2022-10-31 10:10:00,,0824.3,4.98,0.00,26.4,24.8,00.0,35.2,28.2,10.2,0000.0,0002.69,0003.97,0002.39
2022-10-31 10:11:00,,0824.4,5.01,0.00,26.4,24.8,00.0,35.2,28.2,10.2,0000.0,0002.69,0004.01,0002.36
2022-10-31 10:12:00,,0824.4,5.01,0.00,26.4,24.8,00.0,35.2,28.2,10.2,0000.0,0002.66,0003.77,0002.34
2022-10-31 10:13:00,,0824.4,4.99,0.00,26.4,24.8,00.0,35.2,28.2,10.2,0000.0,0002.61,0003.43,0002.31
2022-10-31 10:14:00,,0824.4,5.01,0.00,26.4,24.8,00.0,35.2,28.2,10.2,0000.0,0002.58,0003.33,0002.30
2022-10-31 10:15:00,,0824.4,4.98,0.00,26.4,24.8,00.0,35.2,28.2,10.2,0000.0,0002.54,0003.29,0002.28
2022-10-31 10:16:00,,0824.4,5.01,0.00,26.4,24.8,00.0,35.2,28.2,10.2,0000.0,0002.54,0003.29,0002.26
2022-10-31 10:17:00,,0824.4,5.01,0.00,26.4,24.8,00.0,35.2,28.2,10.2,0000.0,0002.54,0003.32,0002.24
2022-10-31 10:18:00,,0824.4,4.99,0.00,26.4,24.8,00.0,35.2,28.3,10.2,0000.0,0002.54,0003.34,0002.22
2022-10-31 10:19:00,,0824.3,5.01,0.00,26.4,24.8,00.0,35.2,28.2,10.2,0000.0,0002.52,0003.31,0002.20
2022-10-31 10:20:00,,0824.3,4.99,0.00,26.4,24.8,00.0,35.2,28.2,10.2,0000.0,0002.53,0003.33,0002.18
2022-10-31 10:21:00,,0824.3,5.01,0.00,26.4,24.8,00.0,35.2,28.2,10.2,0000.0,0002.54,0003.37,0002.18
2022-10-31 10:22:00,,0824.3,5.01,0.00,26.4,24.8,00.0,35.2,28.2,10.2,0000.0,0002.54,0003.34,0002.18
2022-10-31 10:23:00,,0824.3,4.99,0.00,26.4,24.8,00.0,35.2,28.2,10.2,0000.0,0002.58,0003.51,0002.18
2022-10-31 10:24:00,,0824.4,5.01,0.00,26.4,24.7,00.0,35.2,28.2,10.2,0000.0,0002.60,0003.49,0002.20
2022-10-31 10:25:00,,0824.4,5.01,0.00,26.4,24.7,00.0,35.2,28.2,10.2,0000.0,0002.61,0003.50,0002.19
2022-10-31 10:26:00,,0824.3,4.98,0.00,26.4,24.7,00.0,35.2,28.2,10.2,0000.0,0002.61,0003.49,0002.19
2022-10-31 10:27:00,,0824.3,5.01,0.00,26.4,24.7,00.0,35.2,28.1,10.2,0000.0,0002.59,0003.91,0002.19
2022-10-31 10:28:00,,0824.3,4.99,0.00,26.4,24.7,00.0,35.2,28.2,10.2,0000.0,0002.55,0005.02,0002.20
2022-10-31 10:29:00,,0824.3,5.00,0.00,26.4,24.7,00.0,35.2,28.2,10.2,0000.0,0002.55,0005.02,0002.20
2022-10-31 10:30:00,,0824.4,5.01,0.00,26.4,24.7,00.0,35.2,28.1,10.2,0000.0,0002.53,0004.98,0002.20
2022-10-31 10:31:00,,0824.4,4.99,0.00,26.4,24.7,00.0,35.2,28.2,10.2,0000.0,0002.51,0004.93,0002.20
2022-10-31 10:32:00,,0824.4,5.01,0.00,26.4,24.7,00.0,35.2,28.2,10.2,0000.0,0002.47,0004.86,0002.20
2022-10-31 10:33:00,,0824.4,5.00,0.00,26.4,24.7,00.0,35.2,28.2,10.2,0000.0,0002.45,0004.87,0002.19
2022-10-31 10:34:00,,0824.4,4.99,0.00,26.3,24.7,00.0,35.2,28.1,10.2,0000.0,0002.42,0004.76,0002.19
2022-10-31 10:35:00,,0824.4,5.00,0.00,26.3,24.7,00.0,35.2,28.1,10.2,0000.0,0002.46,0004.78,0002.19
2022-10-31 10:36:00,,0824.4,5.01,0.00,26.3,24.7,00.0,35.2,28.1,10.2,0000.0,0002.49,0004.86,0002.21
2022-10-31 10:37:00,,0824.4,4.99,0.00,26.3,24.7,00.0,35.2,28.2,10.2,0000.0,0002.49,0004.88,0002.21
2022-10-31 10:38:00,,0824.4,5.00,0.00,26.3,24.7,00.0,35.2,28.1,10.2,0000.0,0002.48,0005.16,0002.20
2022-10-31 10:39:00,,0824.4,5.01,0.00,26.3,24.7,00.0,35.2,28.1,10.2,0000.0,0002.49,0004.44,0002.21
2022-10-31 10:40:00,,0824.4,4.99,0.00,26.3,24.7,00.0,35.2,28.1,10.2,0000.0,0002.49,0004.43,0002.20
2022-10-31 10:41:00,,0824.4,5.00,0.00,26.3,24.7,00.0,35.2,28.1,10.2,0000.0,0002.48,0004.41,0002.20
2022-10-31 10:42:00,,0824.4,5.01,0.00,26.3,24.7,00.0,35.2,28.1,10.2,0000.0,0002.47,0004.39,0002.19
2022-10-31 10:43:00,,0824.5,5.01,0.00,26.3,24.7,00.0,35.1,28.1,10.1,0000.0,0002.46,0004.38,0002.18
2022-10-31 10:44:00,,0824.5,4.98,0.00,26.3,24.7,00.0,35.1,28.1,10.1,0000.0,0002.48,0004.40,0002.18
2022-10-31 10:45:00,,0824.4,5.01,0.00,26.3,24.7,00.0,35.1,28.1,10.1,0000.0,0002.52,0004.50,0002.18
2022-10-31 10:46:00,,0824.4,5.02,0.00,26.3,24.6,00.0,35.1,28.1,10.1,0000.0,0002.49,0004.42,0002.18
2022-10-31 10:47:00,,0824.4,4.98,0.00,26.3,24.6,00.0,35.1,28.1,10.1,0000.0,0002.44,0004.33,0002.16
2022-10-31 10:48:00,,0824.4,5.00,0.00,26.3,24.6,00.0,35.1,28.0,10.1,0000.0,0002.45,0004.35,0002.16
2022-10-31 10:49:00,,0824.4,5.01,0.00,26.3,24.6,00.0,35.1,28.0,10.2,0000.0,0002.45,0003.67,0002.17
2022-10-31 10:50:00,,0824.4,4.98,0.00,26.3,24.6,00.0,35.1,28.1,10.1,0000.0,0002.46,0003.16,0002.16
2022-10-31 10:51:00,,0824.4,5.01,0.00,26.3,24.6,00.0,35.1,28.1,10.1,0000.0,0002.44,0003.13,0002.15
2022-10-31 10:52:00,,0824.3,5.01,0.00,26.2,24.6,00.0,35.1,28.0,10.1,0000.0,0002.42,0003.08,0002.14
2022-10-31 10:53:00,,0824.3,4.99,0.00,26.2,24.6,00.0,35.1,28.0,10.1,0000.0,0002.43,0003.10,0002.14
2022-10-31 10:54:00,,0824.3,5.01,0.00,26.2,24.6,00.0,35.1,28.0,10.1,0000.0,0002.44,0003.41,0002.15
2022-10-31 10:55:00,,0824.3,5.01,0.00,26.2,24.5,00.0,35.1,28.0,10.1,0000.0,0002.43,0003.81,0002.15
2022-10-31 10:56:00,,0824.3,4.98,0.00,26.2,24.5,00.0,35.1,28.0,10.1,0000.0,0002.41,0003.84,0002.16
2022-10-31 10:57:00,,0824.3,5.01,0.00,26.2,24.5,00.0,35.1,28.0,10.1,0000.0,0002.44,0003.90,0002.16
2022-10-31 10:58:00,,0824.3,4.98,0.00,26.2,24.5,00.0,35.1,27.9,10.1,0000.0,0002.48,0004.00,0002.18
2022-10-31 10:59:00,,0824.3,5.01,0.00,26.2,24.5,00.0,35.1,27.9,10.1,0000.0,0002.47,0003.95,0002.18
